Location: Aytr�
(46.1357°N, 1.1145°W)
Time: 20:53:05
(UTC+00:00)

Cosmos 2369 Rocket - Pass Details

Date: 03 March 2021
Orbit: 829 x 852 km, 71.0° (Epoch: 20 April)

Event Time Altitude Azimuth Distance (km) Brightness Sun altitude
Rises 21:28:18 0° 340° (NNW) 3,382 6.0 -36.4°
Reaches altitude 10° 21:31:16 10° 355° (N) 2,447 5.0 -36.8°
Enters shadow 21:32:33 15° 5° (N) 2,111 4.5 -37.0°
